Previsão horária em Almaly

Hoje, 25 Junho, Sexta-feira

Tempo Temperatura Precipitação Vento Pressão Humidade
00:00 +18°C° 0 mm 1 m/s 741 mmHg 70%
01:00 +16°C° 0 mm 1 m/s 741 mmHg 68%
02:00 +16°C° 0 mm 1 m/s 741 mmHg 67%
03:00 +16°C° 0 mm 1 m/s 741 mmHg 65%
04:00 +16°C° 0 mm 1 m/s 740 mmHg 64%
05:00 +19°C° 0.2 mm 1 m/s 740 mmHg 68%
06:00 +20°C° 0.2 mm 1 m/s 740 mmHg 72%
07:00 +22°C° 0.2 mm 1 m/s 740 mmHg 75%
08:00 +23°C° 0.1 mm 2 m/s 740 mmHg 72%
09:00 +25°C° 0.1 mm 2 m/s 740 mmHg 68%
10:00 +27°C° 0 mm 3 m/s 740 mmHg 64%
11:00 +28°C° 0.1 mm 3 m/s 739 mmHg 61%
12:00 +29°C° 0.1 mm 3 m/s 739 mmHg 59%
13:00 +30°C° 0.1 mm 4 m/s 739 mmHg 56%
14:00 +30°C° 0.1 mm 4 m/s 739 mmHg 55%
15:00 +30°C° 0.1 mm 5 m/s 739 mmHg 53%
16:00 +30°C° 0.1 mm 5 m/s 739 mmHg 51%
17:00 +29°C° 0 mm 4 m/s 738 mmHg 58%
18:00 +28°C° 0 mm 3 m/s 738 mmHg 65%
19:00 +27°C° 0 mm 2 m/s 738 mmHg 72%
20:00 +25°C° 0.1 mm 2 m/s 738 mmHg 77%
21:00 +24°C° 0.1 mm 2 m/s 738 mmHg 83%
22:00 +22°C° 0.1 mm 1 m/s 738 mmHg 89%
23:00 +21°C° 0.3 mm 1 m/s 738 mmHg 90%

Amanhã, 26 Junho, Sábado

Tempo Temperatura Precipitação Vento Pressão Humidade
00:00 +19°C° 0.3 mm 0 m/s 738 mmHg 91%
01:00 +18°C° 0.3 mm 0 m/s 738 mmHg 93%
02:00 +18°C° 0 mm 0 m/s 738 mmHg 93%
03:00 +18°C° 0 mm 0 m/s 738 mmHg 93%
04:00 +17°C° 0 mm 0 m/s 738 mmHg 93%
05:00 +18°C° 0 mm 0 m/s 738 mmHg 90%
06:00 +21°C° 0 mm 1 m/s 738 mmHg 86%
07:00 +22°C° 0 mm 1 m/s 738 mmHg 82%
08:00 +24°C° 0 mm 1 m/s 738 mmHg 73%
09:00 +26°C° 0 mm 2 m/s 738 mmHg 64%
10:00 +28°C° 0 mm 2 m/s 738 mmHg 55%
11:00 +29°C° 0 mm 3 m/s 738 mmHg 54%
12:00 +30°C° 0 mm 3 m/s 738 mmHg 52%
13:00 +31°C° 0 mm 3 m/s 738 mmHg 51%
14:00 +32°C° 0 mm 4 m/s 738 mmHg 50%
15:00 +32°C° 0 mm 4 m/s 738 mmHg 49%
16:00 +32°C° 0 mm 4 m/s 738 mmHg 48%
17:00 +30°C° 0 mm 3 m/s 738 mmHg 55%
18:00 +29°C° 0 mm 3 m/s 737 mmHg 63%
19:00 +28°C° 0 mm 2 m/s 737 mmHg 70%
20:00 +26°C° 0.1 mm 2 m/s 737 mmHg 77%
21:00 +24°C° 0.1 mm 1 m/s 737 mmHg 83%
22:00 +22°C° 0.1 mm 1 m/s 737 mmHg 89%
23:00 +20°C° 0 mm 0 m/s 737 mmHg 90%

Depois de amanhã, 27 Junho, Domingo

Tempo Temperatura Precipitação Vento Pressão Humidade
00:00 +19°C° 0 mm 0 m/s 737 mmHg 90%
01:00 +19°C° 0 mm 0 m/s 737 mmHg 91%
02:00 +19°C° 0 mm 0 m/s 737 mmHg 91%
03:00 +19°C° 0 mm 0 m/s 738 mmHg 92%
04:00 +18°C° 0 mm 0 m/s 738 mmHg 92%
05:00 +20°C° 0 mm 0 m/s 738 mmHg 88%
06:00 +21°C° 0 mm 0 m/s 738 mmHg 84%
07:00 +23°C° 0 mm 0 m/s 738 mmHg 80%
08:00 +24°C° 0 mm 0 m/s 738 mmHg 73%
09:00 +28°C° 0 mm 1 m/s 738 mmHg 66%
10:00 +29°C° 0 mm 1 m/s 738 mmHg 59%
11:00 +30°C° 0.1 mm 2 m/s 738 mmHg 56%
12:00 +31°C° 0.1 mm 2 m/s 738 mmHg 52%
13:00 +31°C° 0.1 mm 3 m/s 739 mmHg 48%
14:00 +31°C° 0.1 mm 3 m/s 739 mmHg 50%
15:00 +31°C° 0.1 mm 3 m/s 739 mmHg 51%
16:00 +31°C° 0.1 mm 3 m/s 739 mmHg 53%
17:00 +30°C° 0 mm 2 m/s 739 mmHg 58%
18:00 +29°C° 0 mm 2 m/s 738 mmHg 64%
19:00 +28°C° 0 mm 1 m/s 738 mmHg 70%
20:00 +26°C° 0 mm 1 m/s 738 mmHg 74%
21:00 +25°C° 0 mm 1 m/s 738 mmHg 79%
22:00 +21°C° 0 mm 0 m/s 739 mmHg 83%
23:00 +23°C° 0.1 mm 1 m/s 739 mmHg 84%

28 Junho, Segunda-feira

Tempo Temperatura Precipitação Vento Pressão Humidade
00:00 +22°C° 0.1 mm 1 m/s 739 mmHg 86%
01:00 +22°C° 0.1 mm 1 m/s 739 mmHg 87%
02:00 +21°C° 0.1 mm 1 m/s 739 mmHg 88%
03:00 +21°C° 0.1 mm 1 m/s 739 mmHg 88%
04:00 +19°C° 0.1 mm 0 m/s 739 mmHg 89%
05:00 +20°C° 0 mm 0 m/s 739 mmHg 84%
06:00 +22°C° 0 mm 0 m/s 739 mmHg 80%
07:00 +23°C° 0 mm 0 m/s 739 mmHg 75%
08:00 +25°C° 0.3 mm 0 m/s 739 mmHg 72%
09:00 +26°C° 0.3 mm 0 m/s 739 mmHg 68%
10:00 +27°C° 0.3 mm 0 m/s 739 mmHg 64%
11:00 +30°C° 0 mm 1 m/s 739 mmHg 57%
12:00 +32°C° 0 mm 1 m/s 739 mmHg 51%
13:00 +34°C° 0 mm 2 m/s 739 mmHg 45%
14:00 +32°C° 0 mm 2 m/s 739 mmHg 45%
15:00 +32°C° 0 mm 2 m/s 739 mmHg 46%
16:00 +33°C° 0 mm 3 m/s 739 mmHg 47%
17:00 +31°C° 0.1 mm 2 m/s 739 mmHg 55%
18:00 +30°C° 0.1 mm 1 m/s 739 mmHg 62%
19:00 +29°C° 0.1 mm 1 m/s 739 mmHg 70%
20:00 +27°C° 0.1 mm 1 m/s 739 mmHg 74%
21:00 +25°C° 0.1 mm 1 m/s 739 mmHg 79%
22:00 +24°C° 0.1 mm 1 m/s 739 mmHg 84%
23:00 +23°C° 0 mm 1 m/s 738 mmHg 85%

29 Junho, Terça-feira

Tempo Temperatura Precipitação Vento Pressão Humidade
00:00 +22°C° 0 mm 1 m/s 738 mmHg 87%
01:00 +22°C° 0 mm 1 m/s 738 mmHg 88%
02:00 +22°C° 0.1 mm 1 m/s 738 mmHg 88%
03:00 +21°C° 0.1 mm 1 m/s 738 mmHg 89%
04:00 +21°C° 0.1 mm 1 m/s 738 mmHg 89%
05:00 +23°C° 0 mm 1 m/s 738 mmHg 84%
06:00 +24°C° 0 mm 1 m/s 738 mmHg 79%
07:00 +26°C° 0 mm 1 m/s 738 mmHg 74%
08:00 +28°C° 0 mm 1 m/s 738 mmHg 65%
09:00 +30°C° 0 mm 1 m/s 738 mmHg 55%
10:00 +32°C° 0 mm 1 m/s 738 mmHg 46%
11:00 +33°C° 0 mm 1 m/s 738 mmHg 42%
12:00 +35°C° 0 mm 2 m/s 738 mmHg 39%
13:00 +36°C° 0 mm 2 m/s 738 mmHg 35%
14:00 +36°C° 0 mm 2 m/s 738 mmHg 35%
15:00 +36°C° 0 mm 2 m/s 738 mmHg 35%
16:00 +36°C° 0 mm 2 m/s 738 mmHg 35%
17:00 +35°C° 0 mm 2 m/s 738 mmHg 43%
18:00 +32°C° 0 mm 1 m/s 737 mmHg 50%
19:00 +31°C° 0 mm 1 m/s 737 mmHg 58%
20:00 +29°C° 0 mm 1 m/s 737 mmHg 60%
21:00 +28°C° 0 mm 1 m/s 737 mmHg 63%
22:00 +26°C° 0 mm 1 m/s 737 mmHg 65%
23:00 +25°C° 0 mm 1 m/s 737 mmHg 67%

30 Junho, Quarta-feira

Tempo Temperatura Precipitação Vento Pressão Humidade
00:00 +25°C° 0 mm 1 m/s 737 mmHg 70%
01:00 +24°C° 0 mm 1 m/s 737 mmHg 72%
02:00 +24°C° 0 mm 1 m/s 737 mmHg 72%
03:00 +24°C° 0 mm 1 m/s 737 mmHg 72%
04:00 +23°C° 0 mm 1 m/s 737 mmHg 72%
05:00 +25°C° 0.1 mm 1 m/s 737 mmHg 71%
06:00 +26°C° 0.1 mm 1 m/s 737 mmHg 70%
07:00 +28°C° 0.1 mm 1 m/s 737 mmHg 69%
08:00 +29°C° 0 mm 1 m/s 738 mmHg 60%
09:00 +31°C° 0 mm 2 m/s 738 mmHg 52%
10:00 +34°C° 0 mm 2 m/s 738 mmHg 44%
11:00 +35°C° 0 mm 2 m/s 738 mmHg 41%
12:00 +36°C° 0 mm 2 m/s 737 mmHg 38%
13:00 +36°C° 0 mm 1 m/s 737 mmHg 35%
14:00 +36°C° 0 mm 1 m/s 737 mmHg 35%
15:00 +36°C° 0 mm 1 m/s 737 mmHg 36%
16:00 +36°C° 0 mm 1 m/s 737 mmHg 36%
17:00 +34°C° 0 mm 1 m/s 737 mmHg 44%
18:00 +34°C° 0 mm 2 m/s 736 mmHg 52%
19:00 +31°C° 0 mm 2 m/s 736 mmHg 60%
20:00 +30°C° 0 mm 2 m/s 736 mmHg 62%
21:00 +28°C° 0 mm 3 m/s 736 mmHg 65%
22:00 +26°C° 0 mm 3 m/s 737 mmHg 68%
23:00 +25°C° 0.1 mm 2 m/s 737 mmHg 74%
Mostrar mais